Time,TemperatureF,DewpointF,PressureIn,WindDirection,WindDirectionDegrees,WindSpeedMPH,WindSpeedGustMPH,Humidity,HourlyPrecipIn,Conditions,Clouds,dailyrainin,SolarRadiationWatts/m^2,SoftwareType,DateUTC
2013-12-15 00:01:00,30.9,29.9,29.62,NNE,15,0.0,0.0,96,0.00,,,0.00,0,Wunderground v.1.15,2013-12-15 05:01:00,
2013-12-15 00:02:00,30.9,29.9,29.62,NNE,15,0.0,0.0,96,0.00,,,0.00,0,Wunderground v.1.15,2013-12-15 05:02:00,
2013-12-15 00:04:00,30.9,29.9,29.62,North,11,0.0,0.0,96,0.00,,,0.00,0,Wunderground v.1.15,2013-12-15 05:04:00,
2013-12-15 00:05:00,30.9,29.9,29.62,North,11,0.0,0.0,96,0.00,,,0.00,0,Wunderground v.1.15,2013-12-15 05:05:00,
2013-12-15 00:11:00,31.1,30.1,29.61,North,11,0.0,0.0,96,0.00,,,0.00,0,Wunderground v.1.15,2013-12-15 05:11:00,
2013-12-15 00:13:00,31.2,30.2,29.60,NNE,16,0.0,0.0,96,0.00,,,0.00,0,Wunderground v.1.15,2013-12-15 05:13:00,
2013-12-15 00:18:00,31.3,30.3,29.60,NNE,17,0.0,0.0,96,0.00,,,0.00,0,Wunderground v.1.15,2013-12-15 05:18:00,
2013-12-15 00:23:00,31.4,30.6,29.59,NNE,15,0.0,0.0,97,0.00,,,0.00,0,Wunderground v.1.15,2013-12-15 05:23:00,
2013-12-15 00:29:00,31.5,30.7,29.59,NNE,15,0.0,0.0,97,0.00,,,0.00,0,Wunderground v.1.15,2013-12-15 05:29:00,
2013-12-15 00:34:00,31.6,30.8,29.59,NNE,15,0.0,0.0,97,0.00,,,0.00,0,Wunderground v.1.15,2013-12-15 05:34:00,
2013-12-15 00:40:00,31.6,30.8,29.57,NNE,15,0.0,0.0,97,0.00,,,0.00,0,Wunderground v.1.15,2013-12-15 05:40:00,
2013-12-15 00:45:00,31.7,30.9,29.60,NNE,12,0.0,0.0,97,0.00,,,0.00,0,Wunderground v.1.15,2013-12-15 05:45:00,
2013-12-15 00:51:00,31.9,31.1,29.60,North,11,0.0,0.0,97,0.00,,,0.00,0,Wunderground v.1.15,2013-12-15 05:51:00,
2013-12-15 00:57:00,32.0,31.2,29.59,North,11,0.0,0.0,97,0.00,,,0.00,0,Wunderground v.1.15,2013-12-15 05:57:00,
2013-12-15 01:03:00,32.1,31.3,29.58,North,11,0.0,0.0,97,0.00,,,0.00,0,Wunderground v.1.15,2013-12-15 06:03:00,
2013-12-15 01:09:00,32.0,31.2,29.56,North,11,0.0,0.0,97,0.00,,,0.00,0,Wunderground v.1.15,2013-12-15 06:09:00,
2013-12-15 01:15:00,31.9,31.1,29.56,North,11,0.0,0.0,97,0.00,,,0.00,0,Wunderground v.1.15,2013-12-15 06:15:00,
2013-12-15 01:20:00,31.9,31.1,29.56,North,11,0.0,0.0,97,0.00,,,0.00,0,Wunderground v.1.15,2013-12-15 06:20:00,
2013-12-15 01:26:00,31.9,31.1,29.56,North,10,0.0,0.0,97,0.00,,,0.00,0,Wunderground v.1.15,2013-12-15 06:26:00,
2013-12-15 01:31:00,31.8,31.0,29.55,North,9,0.0,0.0,97,0.00,,,0.00,0,Wunderground v.1.15,2013-12-15 06:31:00,
2013-12-15 01:37:00,31.7,30.9,29.54,North,9,0.0,0.0,97,0.00,,,0.00,0,Wunderground v.1.15,2013-12-15 06:37:00,
2013-12-15 01:42:00,31.7,30.9,29.54,North,9,0.0,0.0,97,0.00,,,0.00,0,Wunderground v.1.15,2013-12-15 06:42:00,
2013-12-15 01:48:00,31.8,31.0,29.55,North,9,0.0,0.0,97,0.00,,,0.00,0,Wunderground v.1.15,2013-12-15 06:48:00,
2013-12-15 01:54:00,31.8,31.0,29.55,North,9,0.0,0.0,97,0.00,,,0.00,0,Wunderground v.1.15,2013-12-15 06:54:00,
2013-12-15 02:00:00,31.8,31.0,29.55,North,9,0.0,0.0,97,0.00,,,0.00,0,Wunderground v.1.15,2013-12-15 07:00:00,
2013-12-15 02:05:00,31.8,31.0,29.53,North,9,0.0,0.0,97,0.00,,,0.00,0,Wunderground v.1.15,2013-12-15 07:05:00,
2013-12-15 02:10:00,31.8,31.0,29.53,North,9,0.0,0.0,97,0.00,,,0.00,0,Wunderground v.1.15,2013-12-15 07:10:00,
2013-12-15 02:15:00,31.9,31.1,29.54,North,9,0.0,0.0,97,0.00,,,0.00,0,Wunderground v.1.15,2013-12-15 07:15:00,
2013-12-15 02:20:00,31.9,31.1,29.53,North,9,0.0,0.0,97,0.00,,,0.00,0,Wunderground v.1.15,2013-12-15 07:20:00,
2013-12-15 02:25:00,32.0,31.2,29.52,North,9,0.0,0.0,97,0.00,,,0.00,0,Wunderground v.1.15,2013-12-15 07:25:00,
2013-12-15 02:30:00,32.0,31.2,29.52,North,9,0.0,0.0,97,0.00,,,0.00,0,Wunderground v.1.15,2013-12-15 07:30:00,
2013-12-15 02:35:00,32.0,31.2,29.52,North,9,0.0,0.0,97,0.00,,,0.00,0,Wunderground v.1.15,2013-12-15 07:35:00,
2013-12-15 02:40:00,32.0,31.2,29.54,North,9,0.0,0.0,97,0.00,,,0.00,0,Wunderground v.1.15,2013-12-15 07:40:00,
2013-12-15 02:45:00,32.1,31.3,29.53,North,9,0.0,0.0,97,0.00,,,0.00,0,Wunderground v.1.15,2013-12-15 07:45:00,
2013-12-15 02:50:00,32.1,31.3,29.53,North,9,0.0,0.0,97,0.00,,,0.00,0,Wunderground v.1.15,2013-12-15 07:50:00,
2013-12-15 02:55:00,32.1,31.3,29.51,North,9,0.0,0.0,97,0.00,,,0.00,0,Wunderground v.1.15,2013-12-15 07:55:00,
2013-12-15 03:00:00,32.1,31.3,29.51,North,9,0.0,0.0,97,0.00,,,0.00,0,Wunderground v.1.15,2013-12-15 08:00:00,
2013-12-15 03:05:00,32.2,31.4,29.50,North,9,0.0,0.0,97,0.00,,,0.00,0,Wunderground v.1.15,2013-12-15 08:05:00,
2013-12-15 03:10:00,32.2,31.4,29.50,North,9,0.0,0.0,97,0.00,,,0.00,0,Wunderground v.1.15,2013-12-15 08:10:00,
2013-12-15 03:15:00,32.2,31.4,29.50,North,9,0.0,0.0,97,0.00,,,0.00,0,Wunderground v.1.15,2013-12-15 08:15:00,
2013-12-15 03:20:00,32.2,31.4,29.50,North,9,0.0,0.0,97,0.00,,,0.00,0,Wunderground v.1.15,2013-12-15 08:20:00,
2013-12-15 03:25:00,32.1,31.3,29.49,North,9,0.0,0.0,97,0.00,,,0.00,0,Wunderground v.1.15,2013-12-15 08:25:00,
2013-12-15 03:30:00,32.1,31.3,29.50,North,9,0.0,0.0,97,0.00,,,0.00,0,Wunderground v.1.15,2013-12-15 08:30:00,
2013-12-15 03:35:00,32.1,31.3,29.50,North,9,0.0,0.0,97,0.00,,,0.00,0,Wunderground v.1.15,2013-12-15 08:35:00,
2013-12-15 03:40:00,32.0,31.2,29.51,North,9,0.0,0.0,97,0.00,,,0.00,0,Wunderground v.1.15,2013-12-15 08:40:00,
2013-12-15 03:45:00,32.0,31.2,29.52,North,9,0.0,0.0,97,0.00,,,0.00,0,Wunderground v.1.15,2013-12-15 08:45:00,
2013-12-15 03:50:00,31.9,31.1,29.53,North,9,0.0,0.0,97,0.00,,,0.00,0,Wunderground v.1.15,2013-12-15 08:50:00,
2013-12-15 03:55:00,31.9,31.1,29.52,North,9,0.0,0.0,97,0.00,,,0.00,0,Wunderground v.1.15,2013-12-15 08:55:00,
2013-12-15 04:00:00,31.7,30.9,29.52,North,9,0.0,0.0,97,0.00,,,0.00,0,Wunderground v.1.15,2013-12-15 09:00:00,
2013-12-15 04:05:00,31.5,30.5,29.52,North,9,0.0,0.0,96,0.00,,,0.00,0,Wunderground v.1.15,2013-12-15 09:05:00,
2013-12-15 04:10:00,31.4,30.4,29.52,North,9,0.0,0.0,96,0.00,,,0.00,0,Wunderground v.1.15,2013-12-15 09:10:00,
2013-12-15 04:15:00,31.3,30.3,29.51,North,9,0.0,0.0,96,0.00,,,0.00,0,Wunderground v.1.15,2013-12-15 09:15:00,
2013-12-15 04:20:00,31.3,30.5,29.51,North,9,0.0,0.0,97,0.00,,,0.00,0,Wunderground v.1.15,2013-12-15 09:20:00,
2013-12-15 04:25:00,31.2,30.4,29.51,North,9,0.0,0.0,97,0.00,,,0.00,0,Wunderground v.1.15,2013-12-15 09:25:00,
2013-12-15 04:30:00,31.1,30.3,29.52,North,9,0.0,0.0,97,0.00,,,0.00,0,Wunderground v.1.15,2013-12-15 09:30:00,
2013-12-15 04:35:00,31.1,30.1,29.53,North,9,0.0,0.0,96,0.00,,,0.00,0,Wunderground v.1.15,2013-12-15 09:35:00,
2013-12-15 04:40:00,30.9,30.1,29.53,North,9,0.0,0.0,97,0.00,,,0.00,0,Wunderground v.1.15,2013-12-15 09:40:00,
2013-12-15 04:45:00,30.8,30.0,29.53,North,9,0.0,0.0,97,0.00,,,0.00,0,Wunderground v.1.15,2013-12-15 09:45:00,
2013-12-15 04:50:00,30.8,30.0,29.53,North,9,0.0,0.0,97,0.00,,,0.00,0,Wunderground v.1.15,2013-12-15 09:50:00,
2013-12-15 04:55:00,30.4,29.4,29.52,North,9,0.0,0.0,96,0.00,,,0.00,0,Wunderground v.1.15,2013-12-15 09:55:00,
2013-12-15 05:00:00,30.3,29.3,29.51,North,9,0.0,0.0,96,0.00,,,0.00,0,Wunderground v.1.15,2013-12-15 10:00:00,
2013-12-15 05:05:00,30.2,29.2,29.50,North,9,0.0,0.0,96,0.00,,,0.00,0,Wunderground v.1.15,2013-12-15 10:05:00,
2013-12-15 05:10:00,30.1,29.1,29.50,North,9,0.0,0.0,96,0.00,,,0.00,0,Wunderground v.1.15,2013-12-15 10:10:00,
2013-12-15 05:15:00,30.1,29.1,29.51,North,9,0.0,0.0,96,0.00,,,0.00,0,Wunderground v.1.15,2013-12-15 10:15:00,
2013-12-15 05:20:00,30.0,29.0,29.51,North,9,0.0,0.0,96,0.00,,,0.00,0,Wunderground v.1.15,2013-12-15 10:20:00,
2013-12-15 05:25:00,29.8,28.8,29.52,North,9,0.0,0.0,96,0.00,,,0.00,0,Wunderground v.1.15,2013-12-15 10:25:00,
2013-12-15 05:30:00,29.6,28.6,29.54,North,9,0.0,0.0,96,0.00,,,0.00,0,Wunderground v.1.15,2013-12-15 10:30:00,
2013-12-15 05:35:00,29.5,28.5,29.54,North,9,0.0,0.0,96,0.00,,,0.00,0,Wunderground v.1.15,2013-12-15 10:35:00,
2013-12-15 05:40:00,29.4,28.4,29.54,North,9,0.0,0.0,96,0.00,,,0.00,0,Wunderground v.1.15,2013-12-15 10:40:00,
2013-12-15 05:45:00,29.2,28.2,29.54,North,9,0.0,0.0,96,0.00,,,0.00,0,Wunderground v.1.15,2013-12-15 10:45:00,
2013-12-15 05:50:00,29.0,28.0,29.54,North,9,0.0,0.0,96,0.00,,,0.00,0,Wunderground v.1.15,2013-12-15 10:50:00,
2013-12-15 05:55:00,29.0,28.0,29.54,North,9,0.0,0.0,96,0.00,,,0.00,0,Wunderground v.1.15,2013-12-15 10:55:00,
2013-12-15 06:00:00,29.0,28.0,29.56,North,9,0.0,0.0,96,0.00,,,0.00,0,Wunderground v.1.15,2013-12-15 11:00:00,
2013-12-15 06:05:00,29.0,28.0,29.55,North,9,0.0,0.0,96,0.00,,,0.00,0,Wunderground v.1.15,2013-12-15 11:05:00,
2013-12-15 06:10:00,29.0,28.0,29.55,North,9,0.0,0.0,96,0.00,,,0.00,0,Wunderground v.1.15,2013-12-15 11:10:00,
2013-12-15 06:15:00,29.0,28.0,29.57,North,9,0.0,0.0,96,0.00,,,0.00,0,Wunderground v.1.15,2013-12-15 11:15:00,
2013-12-15 06:20:00,29.0,28.0,29.56,North,9,0.0,0.0,96,0.00,,,0.00,0,Wunderground v.1.15,2013-12-15 11:20:00,
2013-12-15 06:25:00,28.9,27.9,29.56,North,9,0.0,0.0,96,0.00,,,0.00,0,Wunderground v.1.15,2013-12-15 11:25:00,
2013-12-15 06:31:00,28.9,27.9,29.56,North,9,0.0,0.0,96,0.00,,,0.00,0,Wunderground v.1.15,2013-12-15 11:31:00,
2013-12-15 06:36:00,28.8,27.8,29.56,North,9,0.0,0.0,96,0.00,,,0.00,0,Wunderground v.1.15,2013-12-15 11:36:00,
2013-12-15 06:41:00,28.8,27.8,29.55,North,9,0.0,0.0,96,0.00,,,0.00,0,Wunderground v.1.15,2013-12-15 11:41:00,
2013-12-15 06:46:00,28.8,27.8,29.55,North,9,0.0,0.0,96,0.00,,,0.00,0,Wunderground v.1.15,2013-12-15 11:46:00,
2013-12-15 06:51:00,28.7,27.7,29.56,North,9,0.0,0.0,96,0.00,,,0.00,0,Wunderground v.1.15,2013-12-15 11:51:00,
2013-12-15 06:56:00,28.7,27.7,29.57,North,9,0.0,0.0,96,0.00,,,0.00,0,Wunderground v.1.15,2013-12-15 11:56:00,
2013-12-15 07:01:00,28.6,27.6,29.57,North,9,0.0,0.0,96,0.00,,,0.00,0,Wunderground v.1.15,2013-12-15 12:01:00,
2013-12-15 07:06:00,28.5,27.5,29.58,North,9,0.0,0.0,96,0.00,,,0.00,0,Wunderground v.1.15,2013-12-15 12:06:00,
2013-12-15 07:11:00,28.4,27.4,29.57,North,9,0.0,0.0,96,0.00,,,0.00,0,Wunderground v.1.15,2013-12-15 12:11:00,
2013-12-15 07:16:00,28.2,27.2,29.57,North,9,0.0,0.0,96,0.00,,,0.00,0,Wunderground v.1.15,2013-12-15 12:16:00,
2013-12-15 07:21:00,28.2,27.2,29.57,North,9,0.0,0.0,96,0.00,,,0.00,0,Wunderground v.1.15,2013-12-15 12:21:00,
2013-12-15 07:26:00,28.2,27.2,29.56,North,9,0.0,0.0,96,0.00,,,0.00,0,Wunderground v.1.15,2013-12-15 12:26:00,
2013-12-15 07:31:00,28.2,27.2,29.56,North,9,0.0,0.0,96,0.00,,,0.00,0,Wunderground v.1.15,2013-12-15 12:31:00,
2013-12-15 07:36:00,28.1,27.1,29.56,North,9,0.0,0.0,96,0.00,,,0.00,0,Wunderground v.1.15,2013-12-15 12:36:00,
2013-12-15 07:41:00,28.1,27.1,29.56,North,9,0.0,0.0,96,0.00,,,0.00,0,Wunderground v.1.15,2013-12-15 12:41:00,
2013-12-15 07:46:00,28.1,27.1,29.57,North,9,0.0,0.0,96,0.00,,,0.00,5,Wunderground v.1.15,2013-12-15 12:46:00,
2013-12-15 07:51:00,28.0,27.0,29.57,North,9,0.0,0.0,96,0.00,,,0.00,9,Wunderground v.1.15,2013-12-15 12:51:00,
2013-12-15 07:56:00,28.0,27.0,29.57,North,9,0.0,0.0,96,0.00,,,0.00,25,Wunderground v.1.15,2013-12-15 12:56:00,
2013-12-15 08:01:00,27.9,26.9,29.57,North,9,0.0,0.0,96,0.00,,,0.00,23,Wunderground v.1.15,2013-12-15 13:01:00,
2013-12-15 08:06:00,27.9,26.9,29.57,North,9,0.0,0.0,96,0.00,,,0.00,42,Wunderground v.1.15,2013-12-15 13:06:00,
2013-12-15 08:12:00,28.0,27.0,29.58,North,9,0.0,0.0,96,0.00,,,0.00,54,Wunderground v.1.15,2013-12-15 13:12:00,
2013-12-15 08:16:00,28.0,27.0,29.58,North,9,0.0,0.0,96,0.00,,,0.00,51,Wunderground v.1.15,2013-12-15 13:16:00,
2013-12-15 08:21:00,28.1,27.1,29.57,North,9,0.0,0.0,96,0.00,,,0.00,60,Wunderground v.1.15,2013-12-15 13:21:00,
2013-12-15 08:27:00,28.2,27.2,29.57,North,9,0.0,0.0,96,0.00,,,0.00,81,Wunderground v.1.15,2013-12-15 13:27:00,
2013-12-15 08:32:00,28.2,27.2,29.57,North,9,0.0,0.0,96,0.00,,,0.00,109,Wunderground v.1.15,2013-12-15 13:32:00,
2013-12-15 08:37:00,28.3,27.3,29.57,North,9,0.0,0.0,96,0.00,,,0.00,114,Wunderground v.1.15,2013-12-15 13:37:00,
2013-12-15 08:42:00,28.4,27.4,29.57,North,9,0.0,0.0,96,0.00,,,0.00,111,Wunderground v.1.15,2013-12-15 13:42:00,
2013-12-15 08:47:00,28.5,27.5,29.57,North,9,0.0,0.0,96,0.00,,,0.00,97,Wunderground v.1.15,2013-12-15 13:47:00,
2013-12-15 08:52:00,28.6,27.6,29.57,North,9,0.0,0.0,96,0.00,,,0.00,69,Wunderground v.1.15,2013-12-15 13:52:00,
2013-12-15 08:57:00,28.7,27.7,29.57,North,9,0.0,0.0,96,0.00,,,0.00,88,Wunderground v.1.15,2013-12-15 13:57:00,
2013-12-15 09:02:00,28.8,27.8,29.57,North,9,0.0,0.0,96,0.00,,,0.00,81,Wunderground v.1.15,2013-12-15 14:02:00,
2013-12-15 09:07:00,28.9,27.9,29.57,North,9,0.0,0.0,96,0.00,,,0.00,88,Wunderground v.1.15,2013-12-15 14:07:00,
2013-12-15 09:12:00,29.0,28.0,29.57,North,9,0.0,0.0,96,0.00,,,0.00,113,Wunderground v.1.15,2013-12-15 14:12:00,
2013-12-15 09:17:00,29.2,28.2,29.57,North,9,0.0,0.0,96,0.00,,,0.00,118,Wunderground v.1.15,2013-12-15 14:17:00,
2013-12-15 09:22:00,29.4,28.4,29.57,North,9,0.0,0.0,96,0.00,,,0.00,197,Wunderground v.1.15,2013-12-15 14:22:00,
2013-12-15 09:27:00,29.7,28.7,29.57,North,9,0.0,0.0,96,0.00,,,0.00,120,Wunderground v.1.15,2013-12-15 14:27:00,
2013-12-15 09:32:00,29.9,28.9,29.57,North,9,0.0,0.0,96,0.00,,,0.00,97,Wunderground v.1.15,2013-12-15 14:32:00,
2013-12-15 09:37:00,30.2,29.2,29.57,North,9,0.0,0.0,96,0.00,,,0.00,116,Wunderground v.1.15,2013-12-15 14:37:00,
2013-12-15 09:42:00,30.4,29.4,29.58,North,9,0.0,0.0,96,0.00,,,0.00,214,Wunderground v.1.15,2013-12-15 14:42:00,
2013-12-15 09:47:00,30.6,29.6,29.58,North,9,0.0,0.0,96,0.00,,,0.00,165,Wunderground v.1.15,2013-12-15 14:47:00,
2013-12-15 09:52:00,30.9,29.9,29.58,North,8,0.0,0.0,96,0.00,,,0.00,160,Wunderground v.1.15,2013-12-15 14:52:00,
2013-12-15 09:57:00,31.2,30.2,29.58,North,3,0.0,0.0,96,0.00,,,0.00,311,Wunderground v.1.15,2013-12-15 14:57:00,
2013-12-15 10:02:00,31.6,30.6,29.58,West,265,0.0,0.0,96,0.00,,,0.00,137,Wunderground v.1.15,2013-12-15 15:02:00,
2013-12-15 10:07:00,31.8,30.8,29.58,WSW,257,0.0,0.0,96,0.00,,,0.00,202,Wunderground v.1.15,2013-12-15 15:07:00,
2013-12-15 10:12:00,32.0,31.0,29.59,WSW,257,0.0,0.0,96,0.00,,,0.00,311,Wunderground v.1.15,2013-12-15 15:12:00,
2013-12-15 10:17:00,32.2,31.2,29.59,West,275,0.0,0.0,96,0.00,,,0.00,338,Wunderground v.1.15,2013-12-15 15:17:00,
2013-12-15 10:22:00,32.4,31.4,29.59,West,275,0.0,0.0,96,0.00,,,0.00,362,Wunderground v.1.15,2013-12-15 15:22:00,
2013-12-15 10:27:00,32.7,31.7,29.59,WNW,286,0.0,0.0,96,0.00,,,0.00,367,Wunderground v.1.15,2013-12-15 15:27:00,
2013-12-15 10:32:00,32.9,31.9,29.59,WNW,289,0.0,0.0,96,0.00,,,0.00,380,Wunderground v.1.15,2013-12-15 15:32:00,
2013-12-15 10:37:00,33.0,32.0,29.59,WNW,285,3.0,12.0,96,0.00,,,0.00,378,Wunderground v.1.15,2013-12-15 15:37:00,
2013-12-15 10:42:00,33.2,32.2,29.58,WNW,285,5.0,12.0,96,0.00,,,0.00,376,Wunderground v.1.15,2013-12-15 15:42:00,
2013-12-15 10:47:00,33.4,32.4,29.58,WNW,296,7.0,15.0,96,0.19,,,0.03,367,Wunderground v.1.15,2013-12-15 15:47:00,
2013-12-15 10:52:00,33.6,32.6,29.58,WNW,283,9.0,13.0,96,0.12,,,0.04,216,Wunderground v.1.15,2013-12-15 15:52:00,
2013-12-15 10:57:00,33.8,32.8,29.58,NW,312,7.0,13.0,96,0.13,,,0.05,269,Wunderground v.1.15,2013-12-15 15:57:00,
2013-12-15 11:02:00,34.0,34.0,29.58,West,265,4.0,11.0,100,0.13,,,0.06,334,Wunderground v.1.15,2013-12-15 16:02:00,
2013-12-15 11:07:00,34.1,33.1,29.58,NW,304,6.0,14.0,96,0.12,,,0.07,364,Wunderground v.1.15,2013-12-15 16:07:00,
2013-12-15 11:12:00,34.3,33.3,29.58,WSW,254,12.0,19.0,96,0.12,,,0.08,262,Wunderground v.1.15,2013-12-15 16:12:00,
2013-12-15 11:17:00,34.5,33.5,29.58,West,275,8.0,19.0,96,0.13,,,0.10,318,Wunderground v.1.15,2013-12-15 16:17:00,
2013-12-15 11:22:00,34.7,33.7,29.59,NW,308,10.0,18.0,96,0.12,,,0.10,345,Wunderground v.1.15,2013-12-15 16:22:00,
2013-12-15 11:27:00,34.9,33.9,29.58,NE,44,2.0,18.0,96,0.11,,,0.11,339,Wunderground v.1.15,2013-12-15 16:27:00,
2013-12-15 11:33:00,35.0,33.7,29.58,West,265,4.0,16.0,95,0.12,,,0.12,404,Wunderground v.1.15,2013-12-15 16:33:00,
2013-12-15 11:38:00,35.2,33.9,29.58,NNW,335,7.0,18.0,95,0.10,,,0.13,359,Wunderground v.1.15,2013-12-15 16:38:00,
2013-12-15 11:43:00,35.4,34.1,29.59,West,265,6.0,19.0,95,0.11,,,0.14,476,Wunderground v.1.15,2013-12-15 16:43:00,
2013-12-15 11:48:00,35.5,34.2,29.59,NW,325,4.0,19.0,95,0.11,,,0.15,510,Wunderground v.1.15,2013-12-15 16:48:00,
2013-12-15 11:53:00,35.6,34.3,29.59,WSW,249,8.0,16.0,95,0.13,,,0.16,403,Wunderground v.1.15,2013-12-15 16:53:00,
2013-12-15 11:58:00,35.7,34.4,29.59,North,350,6.0,16.0,95,0.10,,,0.17,475,Wunderground v.1.15,2013-12-15 16:58:00,
2013-12-15 12:03:00,35.8,34.5,29.59,WNW,293,14.0,14.0,95,0.08,,,0.17,403,Wunderground v.1.15,2013-12-15 17:03:00,
2013-12-15 12:08:00,35.8,34.2,29.59,NW,308,8.0,17.0,94,0.08,,,0.18,424,Wunderground v.1.15,2013-12-15 17:08:00,
2013-12-15 12:13:00,35.9,34.3,29.59,West,270,3.0,12.0,94,0.08,,,0.19,155,Wunderground v.1.15,2013-12-15 17:13:00,
2013-12-15 12:19:00,36.0,34.4,29.59,West,275,10.0,18.0,94,0.08,,,0.19,146,Wunderground v.1.15,2013-12-15 17:19:00,
2013-12-15 12:24:00,36.1,34.5,29.60,NW,315,10.0,17.0,94,0.06,,,0.20,155,Wunderground v.1.15,2013-12-15 17:24:00,
2013-12-15 12:29:00,36.2,34.6,29.60,West,279,6.0,17.0,94,0.06,,,0.20,165,Wunderground v.1.15,2013-12-15 17:29:00,
2013-12-15 12:34:00,36.3,34.7,29.60,WNW,289,10.0,16.0,94,0.06,,,0.21,443,Wunderground v.1.15,2013-12-15 17:34:00,
2013-12-15 12:39:00,36.5,34.9,29.60,NW,312,12.0,16.0,94,0.06,,,0.21,469,Wunderground v.1.15,2013-12-15 17:39:00,
2013-12-15 12:44:00,36.6,34.8,29.60,NW,309,7.0,13.0,93,0.06,,,0.22,207,Wunderground v.1.15,2013-12-15 17:44:00,
2013-12-15 12:49:00,36.7,34.9,29.60,SW,224,5.0,18.0,93,0.06,,,0.22,95,Wunderground v.1.15,2013-12-15 17:49:00,
2013-12-15 12:54:00,37.0,34.9,29.61,West,270,7.0,13.0,92,0.05,,,0.22,251,Wunderground v.1.15,2013-12-15 17:54:00,
2013-12-15 12:59:00,37.1,34.7,29.61,West,270,3.0,19.0,91,0.04,,,0.23,341,Wunderground v.1.15,2013-12-15 17:59:00,
2013-12-15 13:04:00,37.4,34.5,29.61,West,270,2.0,19.0,89,0.04,,,0.23,394,Wunderground v.1.15,2013-12-15 18:04:00,
2013-12-15 13:09:00,37.6,34.4,29.61,West,270,11.0,19.0,88,0.06,,,0.24,480,Wunderground v.1.15,2013-12-15 18:09:00,
2013-12-15 13:14:00,37.7,34.2,29.61,NW,312,10.0,20.0,87,0.06,,,0.24,229,Wunderground v.1.15,2013-12-15 18:14:00,
2013-12-15 13:19:00,37.7,33.9,29.62,WNW,296,5.0,20.0,86,0.07,,,0.25,220,Wunderground v.1.15,2013-12-15 18:19:00,
2013-12-15 13:24:00,37.5,33.4,29.61,West,260,3.0,18.0,85,0.07,,,0.25,204,Wunderground v.1.15,2013-12-15 18:24:00,
2013-12-15 13:29:00,37.5,33.7,29.62,WNW,291,7.0,18.0,86,0.05,,,0.26,260,Wunderground v.1.15,2013-12-15 18:29:00,
2013-12-15 13:34:00,37.6,33.5,29.62,NW,311,9.0,17.0,85,0.05,,,0.26,193,Wunderground v.1.15,2013-12-15 18:34:00,
2013-12-15 13:39:00,37.5,33.1,29.62,West,265,7.0,17.0,84,0.05,,,0.26,183,Wunderground v.1.15,2013-12-15 18:39:00,
2013-12-15 13:44:00,37.5,33.1,29.62,West,265,6.0,14.0,84,0.05,,,0.27,197,Wunderground v.1.15,2013-12-15 18:44:00,
2013-12-15 13:49:00,37.5,33.1,29.63,NW,321,3.0,14.0,84,0.05,,,0.27,232,Wunderground v.1.15,2013-12-15 18:49:00,
2013-12-15 13:54:00,37.6,33.2,29.63,West,280,5.0,15.0,84,0.04,,,0.27,156,Wunderground v.1.15,2013-12-15 18:54:00,
2013-12-15 13:59:00,37.7,33.3,29.64,WNW,283,0.0,15.0,84,0.04,,,0.28,265,Wunderground v.1.15,2013-12-15 18:59:00,
2013-12-15 14:04:00,37.8,33.4,29.64,West,270,5.0,8.0,84,0.04,,,0.28,141,Wunderground v.1.15,2013-12-15 19:04:00,
2013-12-15 14:09:00,37.9,33.2,29.64,West,265,2.0,16.0,83,0.04,,,0.28,188,Wunderground v.1.15,2013-12-15 19:09:00,
2013-12-15 14:14:00,38.0,33.3,29.64,WSW,239,6.0,16.0,83,0.04,,,0.29,155,Wunderground v.1.15,2013-12-15 19:14:00,
2013-12-15 14:19:00,38.0,33.3,29.64,West,275,3.0,21.0,83,0.04,,,0.29,97,Wunderground v.1.15,2013-12-15 19:19:00,
2013-12-15 14:24:00,37.9,32.9,29.65,West,275,13.0,16.0,82,0.04,,,0.29,42,Wunderground v.1.15,2013-12-15 19:24:00,
2013-12-15 14:29:00,37.9,32.9,29.65,WNW,285,10.0,19.0,82,0.04,,,0.30,53,Wunderground v.1.15,2013-12-15 19:29:00,
2013-12-15 14:34:00,37.8,32.8,29.66,WSW,248,3.0,10.0,82,0.04,,,0.30,46,Wunderground v.1.15,2013-12-15 19:34:00,
2013-12-15 14:39:00,37.6,32.9,29.66,WSW,247,7.0,17.0,83,0.04,,,0.30,39,Wunderground v.1.15,2013-12-15 19:39:00,
2013-12-15 14:44:00,37.6,32.9,29.66,WNW,302,3.0,12.0,83,0.00,,,0.30,58,Wunderground v.1.15,2013-12-15 19:44:00,
2013-12-15 14:47:00,37.6,32.6,29.66,WNW,300,8.0,14.0,82,0.00,,,0.30,46,Wunderground v.1.15,2013-12-15 19:47:00,
2013-12-15 14:52:00,37.6,32.6,29.66,West,270,11.0,13.0,82,0.00,,,0.30,42,Wunderground v.1.15,2013-12-15 19:52:00,
2013-12-15 14:57:00,37.6,32.3,29.66,WSW,239,0.0,14.0,81,0.00,,,0.31,35,Wunderground v.1.15,2013-12-15 19:57:00,
2013-12-15 15:02:00,37.6,32.3,29.67,SW,236,4.0,10.0,81,0.00,,,0.31,49,Wunderground v.1.15,2013-12-15 20:02:00,
2013-12-15 15:07:00,37.7,32.1,29.67,WSW,255,8.0,13.0,80,0.00,,,0.31,56,Wunderground v.1.15,2013-12-15 20:07:00,
2013-12-15 15:12:00,37.6,32.0,29.68,SW,227,0.0,12.0,80,0.00,,,0.31,53,Wunderground v.1.15,2013-12-15 20:12:00,
2013-12-15 15:17:00,37.7,31.5,29.68,SW,230,5.0,14.0,78,0.00,,,0.31,47,Wunderground v.1.15,2013-12-15 20:17:00,
2013-12-15 15:22:00,37.8,30.9,29.68,WSW,257,2.0,17.0,76,0.00,,,0.32,40,Wunderground v.1.15,2013-12-15 20:22:00,
2013-12-15 15:27:00,37.8,30.6,29.68,West,275,11.0,17.0,75,0.00,,,0.32,40,Wunderground v.1.15,2013-12-15 20:27:00,
2013-12-15 15:32:00,37.9,30.4,29.69,NW,322,7.0,12.0,74,0.00,,,0.32,33,Wunderground v.1.15,2013-12-15 20:32:00,
2013-12-15 15:37:00,37.9,30.4,29.69,WNW,293,8.0,12.0,74,0.00,,,0.32,35,Wunderground v.1.15,2013-12-15 20:37:00,
2013-12-15 15:42:00,37.9,30.0,29.69,West,270,9.0,15.0,73,0.00,,,0.32,35,Wunderground v.1.15,2013-12-15 20:42:00,
2013-12-15 15:47:00,37.8,29.9,29.70,WSW,258,4.0,15.0,73,0.00,,,0.32,30,Wunderground v.1.15,2013-12-15 20:47:00,
2013-12-15 15:52:00,37.8,29.9,29.70,WSW,241,11.0,11.0,73,0.00,,,0.32,37,Wunderground v.1.15,2013-12-15 20:52:00,
2013-12-15 15:57:00,37.8,29.9,29.70,West,265,2.0,13.0,73,0.00,,,0.32,18,Wunderground v.1.15,2013-12-15 20:57:00,
2013-12-15 16:02:00,37.6,30.1,29.70,WNW,300,13.0,16.0,74,0.00,,,0.32,18,Wunderground v.1.15,2013-12-15 21:02:00,
2013-12-15 16:07:00,37.5,29.6,29.71,NW,322,6.0,19.0,73,0.00,,,0.32,14,Wunderground v.1.15,2013-12-15 21:07:00,
2013-12-15 16:12:00,37.4,29.2,29.71,West,265,5.0,10.0,72,0.00,,,0.32,12,Wunderground v.1.15,2013-12-15 21:12:00,
2013-12-15 16:17:00,37.4,29.2,29.71,West,275,5.0,13.0,72,0.00,,,0.32,11,Wunderground v.1.15,2013-12-15 21:17:00,
2013-12-15 16:22:00,37.4,28.9,29.71,West,265,9.0,13.0,71,0.00,,,0.32,9,Wunderground v.1.15,2013-12-15 21:22:00,
2013-12-15 16:28:00,37.4,28.5,29.72,WNW,288,9.0,13.0,70,0.00,,,0.32,5,Wunderground v.1.15,2013-12-15 21:28:00,
2013-12-15 16:33:00,37.4,28.5,29.72,West,270,4.0,17.0,70,0.00,,,0.32,0,Wunderground v.1.15,2013-12-15 21:33:00,
2013-12-15 16:38:00,37.5,28.6,29.72,West,260,8.0,17.0,70,0.00,,,0.32,0,Wunderground v.1.15,2013-12-15 21:38:00,
2013-12-15 16:43:00,37.5,28.6,29.72,WNW,289,4.0,11.0,70,0.00,,,0.32,0,Wunderground v.1.15,2013-12-15 21:43:00,
2013-12-15 16:48:00,37.4,28.9,29.72,WNW,292,5.0,11.0,71,0.00,,,0.32,0,Wunderground v.1.15,2013-12-15 21:48:00,
2013-12-15 16:53:00,37.3,28.8,29.73,WSW,253,6.0,13.0,71,0.00,,,0.33,0,Wunderground v.1.15,2013-12-15 21:53:00,
2013-12-15 16:58:00,37.2,29.0,29.73,WSW,249,6.0,13.0,72,0.00,,,0.33,0,Wunderground v.1.15,2013-12-15 21:58:00,
2013-12-15 17:03:00,37.1,28.9,29.72,WNW,298,8.0,11.0,72,0.00,,,0.33,0,Wunderground v.1.15,2013-12-15 22:03:00,
2013-12-15 17:08:00,37.0,28.5,29.73,NW,319,6.0,13.0,71,0.00,,,0.33,0,Wunderground v.1.15,2013-12-15 22:08:00,
2013-12-15 17:13:00,37.1,28.6,29.73,WSW,258,9.0,13.0,71,0.00,,,0.33,0,Wunderground v.1.15,2013-12-15 22:13:00,
2013-12-15 17:18:00,37.0,27.8,29.73,West,281,21.0,24.0,69,0.00,,,0.33,0,Wunderground v.1.15,2013-12-15 22:18:00,
2013-12-15 17:23:00,37.1,27.2,29.73,NW,310,9.0,15.0,67,0.00,,,0.33,0,Wunderground v.1.15,2013-12-15 22:23:00,
2013-12-15 17:28:00,37.1,27.2,29.73,WNW,289,10.0,21.0,67,0.00,,,0.33,0,Wunderground v.1.15,2013-12-15 22:28:00,
2013-12-15 17:33:00,37.1,26.8,29.74,West,280,17.0,18.0,66,0.00,,,0.33,0,Wunderground v.1.15,2013-12-15 22:33:00,
2013-12-15 17:38:00,37.0,26.7,29.74,West,265,6.0,27.0,66,0.00,,,0.33,0,Wunderground v.1.15,2013-12-15 22:38:00,
2013-12-15 17:43:00,36.8,26.1,29.74,NNW,332,15.0,20.0,65,0.00,,,0.33,0,Wunderground v.1.15,2013-12-15 22:43:00,
2013-12-15 17:48:00,36.7,26.0,29.75,West,275,4.0,25.0,65,0.00,,,0.33,0,Wunderground v.1.15,2013-12-15 22:48:00,
2013-12-15 17:53:00,36.5,25.5,29.75,WNW,292,12.0,13.0,64,0.00,,,0.33,0,Wunderground v.1.15,2013-12-15 22:53:00,
2013-12-15 17:58:00,36.4,25.7,29.75,WNW,285,3.0,14.0,65,0.00,,,0.33,0,Wunderground v.1.15,2013-12-15 22:58:00,
2013-12-15 18:03:00,36.3,25.7,29.76,NNW,339,5.0,11.0,65,0.00,,,0.33,0,Wunderground v.1.15,2013-12-15 23:03:00,
2013-12-15 18:08:00,36.1,25.8,29.76,WSW,257,5.0,14.0,66,0.00,,,0.33,0,Wunderground v.1.15,2013-12-15 23:08:00,
2013-12-15 18:13:00,36.0,25.4,29.76,West,260,4.0,14.0,65,0.00,,,0.33,0,Wunderground v.1.15,2013-12-15 23:13:00,
2013-12-15 18:18:00,35.9,25.6,29.76,WSW,254,5.0,15.0,66,0.00,,,0.33,0,Wunderground v.1.15,2013-12-15 23:18:00,
2013-12-15 18:24:00,35.9,25.6,29.77,WNW,284,6.0,16.0,66,0.00,,,0.33,0,Wunderground v.1.15,2013-12-15 23:24:00,
2013-12-15 18:29:00,35.9,25.6,29.77,West,270,3.0,16.0,66,0.00,,,0.33,0,Wunderground v.1.15,2013-12-15 23:29:00,
2013-12-15 18:34:00,35.8,25.9,29.77,NW,304,11.0,11.0,67,0.00,,,0.33,0,Wunderground v.1.15,2013-12-15 23:34:00,
2013-12-15 18:39:00,35.7,25.4,29.77,WNW,287,7.0,13.0,66,0.00,,,0.33,0,Wunderground v.1.15,2013-12-15 23:39:00,
2013-12-15 18:44:00,35.7,25.8,29.77,West,265,4.0,10.0,67,0.00,,,0.33,0,Wunderground v.1.15,2013-12-15 23:44:00,
2013-12-15 18:49:00,35.6,26.1,29.78,West,265,2.0,11.0,68,0.00,,,0.33,0,Wunderground v.1.15,2013-12-15 23:49:00,
2013-12-15 18:54:00,35.4,25.9,29.78,West,265,3.0,8.0,68,0.00,,,0.33,0,Wunderground v.1.15,2013-12-15 23:54:00,
2013-12-15 18:59:00,35.3,25.8,29.78,WSW,256,1.0,10.0,68,0.00,,,0.33,0,Wunderground v.1.15,2013-12-15 23:59:00,
2013-12-15 19:04:00,35.1,25.6,29.78,WNW,283,6.0,12.0,68,0.00,,,0.33,0,Wunderground v.1.15,2013-12-16 00:04:00,
2013-12-15 19:09:00,35.0,25.9,29.79,West,265,8.0,12.0,69,0.00,,,0.33,0,Wunderground v.1.15,2013-12-16 00:09:00,
2013-12-15 19:14:00,34.9,25.8,29.79,West,265,6.0,13.0,69,0.00,,,0.33,0,Wunderground v.1.15,2013-12-16 00:14:00,
2013-12-15 19:19:00,34.9,25.8,29.79,West,261,4.0,13.0,69,0.00,,,0.33,0,Wunderground v.1.15,2013-12-16 00:19:00,
2013-12-15 19:24:00,34.8,25.7,29.79,WNW,286,0.0,8.0,69,0.00,,,0.33,0,Wunderground v.1.15,2013-12-16 00:24:00,
2013-12-15 19:29:00,34.7,25.6,29.79,West,279,6.0,12.0,69,0.00,,,0.33,0,Wunderground v.1.15,2013-12-16 00:29:00,
2013-12-15 19:34:00,34.6,25.5,29.80,WSW,248,6.0,11.0,69,0.00,,,0.33,0,Wunderground v.1.15,2013-12-16 00:34:00,
2013-12-15 19:39:00,34.6,25.5,29.80,West,270,3.0,11.0,69,0.00,,,0.33,0,Wunderground v.1.15,2013-12-16 00:39:00,
2013-12-15 19:44:00,34.4,25.6,29.80,WNW,302,6.0,12.0,70,0.00,,,0.33,0,Wunderground v.1.15,2013-12-16 00:44:00,
2013-12-15 19:49:00,34.3,25.5,29.80,WNW,296,4.0,12.0,70,0.00,,,0.33,0,Wunderground v.1.15,2013-12-16 00:49:00,
2013-12-15 19:54:00,34.1,25.3,29.80,NW,324,6.0,12.0,70,0.00,,,0.33,0,Wunderground v.1.15,2013-12-16 00:54:00,
2013-12-15 19:59:00,33.9,25.1,29.80,WNW,292,8.0,12.0,70,0.00,,,0.33,0,Wunderground v.1.15,2013-12-16 00:59:00,
2013-12-15 20:04:00,33.8,25.0,29.80,NNW,333,8.0,9.0,70,0.00,,,0.33,0,Wunderground v.1.15,2013-12-16 01:04:00,
2013-12-15 20:09:00,33.7,25.0,29.80,WNW,293,10.0,13.0,70,0.00,,,0.33,0,Wunderground v.1.15,2013-12-16 01:09:00,
2013-12-15 20:14:00,33.5,24.8,29.81,WSW,243,5.0,13.0,70,0.00,,,0.33,0,Wunderground v.1.15,2013-12-16 01:14:00,
2013-12-15 20:19:00,33.5,24.8,29.81,WSW,252,3.0,13.0,70,0.00,,,0.33,0,Wunderground v.1.15,2013-12-16 01:19:00,
2013-12-15 20:24:00,33.4,24.0,29.81,SW,229,2.0,9.0,68,0.00,,,0.33,0,Wunderground v.1.15,2013-12-16 01:24:00,
2013-12-15 20:29:00,33.2,23.4,29.81,SW,234,0.0,16.0,67,0.00,,,0.33,0,Wunderground v.1.15,2013-12-16 01:29:00,
2013-12-15 20:34:00,33.0,22.9,29.81,WSW,239,8.0,12.0,66,0.00,,,0.33,0,Wunderground v.1.15,2013-12-16 01:34:00,
2013-12-15 20:39:00,32.8,22.7,29.81,West,270,2.0,12.0,66,0.00,,,0.33,0,Wunderground v.1.15,2013-12-16 01:39:00,
2013-12-15 20:44:00,32.7,22.2,29.82,WNW,296,6.0,10.0,65,0.00,,,0.33,0,Wunderground v.1.15,2013-12-16 01:44:00,
2013-12-15 20:49:00,32.6,22.5,29.82,West,275,6.0,10.0,66,0.00,,,0.33,0,Wunderground v.1.15,2013-12-16 01:49:00,
2013-12-15 20:54:00,32.4,22.3,29.82,WSW,251,2.0,12.0,66,0.00,,,0.33,0,Wunderground v.1.15,2013-12-16 01:54:00,
2013-12-15 20:59:00,32.3,22.2,29.82,West,265,7.0,12.0,66,0.00,,,0.33,0,Wunderground v.1.15,2013-12-16 01:59:00,
2013-12-15 21:04:00,32.1,22.4,29.82,WSW,247,5.0,8.0,67,0.00,,,0.33,0,Wunderground v.1.15,2013-12-16 02:04:00,
2013-12-15 21:09:00,31.9,22.2,29.82,SW,231,0.0,8.0,67,0.00,,,0.33,0,Wunderground v.1.15,2013-12-16 02:09:00,
2013-12-15 21:14:00,31.7,22.3,29.82,SW,235,1.0,7.0,68,0.00,,,0.33,0,Wunderground v.1.15,2013-12-16 02:14:00,
2013-12-15 21:19:00,31.5,22.1,29.82,SW,229,0.0,7.0,68,0.00,,,0.33,0,Wunderground v.1.15,2013-12-16 02:19:00,
2013-12-15 21:24:00,31.3,22.3,29.82,SW,223,2.0,7.0,69,0.00,,,0.33,0,Wunderground v.1.15,2013-12-16 02:24:00,
2013-12-15 21:29:00,31.0,22.4,29.82,SW,224,5.0,8.0,70,0.00,,,0.33,0,Wunderground v.1.15,2013-12-16 02:29:00,
2013-12-15 21:34:00,30.9,22.6,29.83,SW,216,4.0,9.0,71,0.00,,,0.33,0,Wunderground v.1.15,2013-12-16 02:34:00,
2013-12-15 21:39:00,30.8,22.5,29.83,SW,227,5.0,9.0,71,0.00,,,0.33,0,Wunderground v.1.15,2013-12-16 02:39:00,
2013-12-15 21:44:00,30.7,22.7,29.82,SW,221,4.0,10.0,72,0.00,,,0.33,0,Wunderground v.1.15,2013-12-16 02:44:00,
2013-12-15 21:49:00,30.7,22.4,29.82,SW,219,2.0,10.0,71,0.00,,,0.33,0,Wunderground v.1.15,2013-12-16 02:49:00,
2013-12-15 21:54:00,30.5,22.5,29.82,SSW,212,6.0,10.0,72,0.00,,,0.33,0,Wunderground v.1.15,2013-12-16 02:54:00,
2013-12-15 21:59:00,30.5,22.5,29.82,SSW,202,9.0,10.0,72,0.00,,,0.33,0,Wunderground v.1.15,2013-12-16 02:59:00,
2013-12-15 22:04:00,30.5,22.5,29.82,SW,216,2.0,11.0,72,0.00,,,0.33,0,Wunderground v.1.15,2013-12-16 03:04:00,
2013-12-15 22:09:00,30.4,22.8,29.83,SW,214,4.0,11.0,73,0.00,,,0.33,0,Wunderground v.1.15,2013-12-16 03:09:00,
2013-12-15 22:14:00,30.2,22.6,29.83,SW,214,2.0,9.0,73,0.00,,,0.33,0,Wunderground v.1.15,2013-12-16 03:14:00,
2013-12-15 22:19:00,30.1,22.5,29.83,South,180,2.0,9.0,73,0.00,,,0.33,0,Wunderground v.1.15,2013-12-16 03:19:00,
2013-12-15 22:24:00,30.0,22.4,29.83,SSW,209,3.0,6.0,73,0.00,,,0.33,0,Wunderground v.1.15,2013-12-16 03:24:00,
2013-12-15 22:29:00,30.0,22.4,29.83,SSW,202,2.0,7.0,73,0.00,,,0.33,0,Wunderground v.1.15,2013-12-16 03:29:00,
2013-12-15 22:34:00,30.1,22.5,29.83,South,177,2.0,11.0,73,0.00,,,0.33,0,Wunderground v.1.15,2013-12-16 03:34:00,
2013-12-15 22:39:00,30.1,22.8,29.83,SW,225,6.0,11.0,74,0.00,,,0.33,0,Wunderground v.1.15,2013-12-16 03:39:00,
2013-12-15 22:44:00,30.1,22.8,29.82,SW,220,2.0,9.0,74,0.00,,,0.33,0,Wunderground v.1.15,2013-12-16 03:44:00,
2013-12-15 22:49:00,30.1,22.8,29.82,SSW,204,6.0,9.0,74,0.00,,,0.33,0,Wunderground v.1.15,2013-12-16 03:49:00,
2013-12-15 22:54:00,30.2,22.6,29.82,SW,218,5.0,8.0,73,0.00,,,0.33,0,Wunderground v.1.15,2013-12-16 03:54:00,
2013-12-15 22:59:00,30.3,22.7,29.83,SE,134,3.0,8.0,73,0.00,,,0.33,0,Wunderground v.1.15,2013-12-16 03:59:00,
2013-12-15 23:04:00,30.3,22.7,29.83,WSW,237,8.0,8.0,73,0.00,,,0.33,0,Wunderground v.1.15,2013-12-16 04:04:00,
2013-12-15 23:09:00,30.4,22.4,29.83,WSW,240,7.0,10.0,72,0.00,,,0.33,0,Wunderground v.1.15,2013-12-16 04:09:00,
2013-12-15 23:14:00,30.4,22.8,29.83,SW,215,4.0,11.0,73,0.00,,,0.33,0,Wunderground v.1.15,2013-12-16 04:14:00,
2013-12-15 23:19:00,30.3,22.4,29.83,SW,220,5.0,11.0,72,0.00,,,0.33,0,Wunderground v.1.15,2013-12-16 04:19:00,
2013-12-15 23:24:00,30.2,22.3,29.83,SSW,213,0.0,10.0,72,0.00,,,0.33,0,Wunderground v.1.15,2013-12-16 04:24:00,
2013-12-15 23:29:00,30.1,22.2,29.83,SW,214,6.0,11.0,72,0.00,,,0.33,0,Wunderground v.1.15,2013-12-16 04:29:00,
2013-12-15 23:34:00,30.1,22.2,29.83,SW,235,6.0,10.0,72,0.00,,,0.33,0,Wunderground v.1.15,2013-12-16 04:34:00,
2013-12-15 23:39:00,30.0,22.4,29.83,WSW,250,8.0,10.0,73,0.00,,,0.33,0,Wunderground v.1.15,2013-12-16 04:39:00,
2013-12-15 23:44:00,29.9,22.3,29.83,SW,222,8.0,11.0,73,0.00,,,0.33,0,Wunderground v.1.15,2013-12-16 04:44:00,
2013-12-15 23:49:00,29.9,22.3,29.83,SW,218,7.0,14.0,73,0.00,,,0.33,0,Wunderground v.1.15,2013-12-16 04:49:00,
2013-12-15 23:54:00,29.9,22.3,29.83,WSW,242,8.0,12.0,73,0.00,,,0.33,0,Wunderground v.1.15,2013-12-16 04:54:00,
2013-12-15 23:59:00,29.8,22.2,29.82,SSW,202,3.0,12.0,73,0.00,,,0.33,0,Wunderground v.1.15,2013-12-16 04:59:00,